Hourly Data Report for October 02, 2017

All times are specified in Local Standard Time (LST). Add 1 hour to adjust for Daylight Saving Time where and when it is observed.

SANDSPIT
BRITISH COLUMBIA

53°15'15.000" N
131°48'50.000" W
6.40 m
1057052
71111
YZP

Download Data

Hourly Data (October 2017)
Hourly Data Report for October 2, 2017
Temp Definition
°C
Dew Point Temp Definition
°C
Rel Hum Definition
%
Wind Dir Definition
10's deg

Wind Spd Definition
km/h
Visibility Definition
km
Stn Press Definition
kPa
Hmdx Definition


Wind Chill Definition


Weather Definition


TIME
00:00 Legend Double Dagger 11.6 7.0 73 32 21 16.1 102.80     LegendNANA
01:00 Legend Double Dagger 11.5 7.1 74 31 22 16.1 102.85     LegendNANA
02:00 Legend Double Dagger 11.5 8.0 79 33 24 16.1 102.85     LegendNANA
03:00 Legend Double Dagger 11.3 8.1 80 32 22 16.1 102.86     LegendNANA
04:00 Legend Double Dagger 11.0 8.0 82 31 17 16.1 102.87     LegendNANA
05:00 Legend Double Dagger 10.9 8.1 83 33 21 16.1 102.88     LegendNANA
06:00 Legend Double Dagger 10.6 8.0 84 34 15 16.1 102.89     LegendNANA
07:00 Legend Double Dagger 10.7 9.3 91 33 13 16.1 102.89     LegendNANA
08:00 Legend Double Dagger 10.9 9.2 89 34 13 16.1 102.90     LegendNANA
09:00 Legend Double Dagger 11.9 9.6 86 35 9 16.1 102.91     LegendNANA
10:00 Legend Double Dagger 12.1 9.4 84 28 9 16.1 102.88     LegendNANA
11:00 Legend Double Dagger 12.6 9.5 81 35 5 16.1 102.89     LegendNANA
12:00 Legend Double Dagger 13.4 10.2 81 1 9 16.1 102.89     LegendNANA
13:00 Legend Double Dagger 13.6 10.3 80 3 9 16.1 102.87     LegendNANA
14:00 Legend Double Dagger 13.6 9.7 77 3 8 16.1 102.85     LegendNANA
15:00 Legend Double Dagger 13.8 8.3 69 5 9 16.1 102.84     LegendNANA
16:00 Legend Double Dagger 13.9 6.8 62 10 13 16.1 102.78     LegendNANA
17:00 Legend Double Dagger 13.1 6.5 64 10 11 16.1 102.74     LegendNANA
18:00 Legend Double Dagger 11.1 6.2 71 14 9 16.1 102.74     LegendNANA
19:00 Legend Double Dagger 10.3 6.5 77 16 8 16.1 102.71     LegendNANA
20:00 Legend Double Dagger 9.7 6.4 80 22 8 16.1 102.71     LegendNANA
21:00 Legend Double Dagger 8.7 5.9 82 23 9 16.1 102.71     LegendNANA
22:00 Legend Double Dagger 9.8 5.5 75 27 9 16.1 102.67     LegendNANA
23:00 Legend Double Dagger 9.1 5.6 79 26 5 16.1 102.66     LegendNANA

Notes on Data Quality.

Legend

  • E = Estimated
  • M = Missing
  • NA = Not Available
  • ‡ = Partner data that is not subject to review by the National Climate Archives
Date modified: